SCP
0 0 0 0 0 0 0 0 0 0 0 0 0 0 0 0 0 0 0 0 0 0 0 0 0 0 0 0 0 0 0 0 0 0 0 0 0 0 0 0 0 0 0
0 0 0 0 0 0 0 0 0 0 0 0 0 0 0 0 0 0 0 0 0 0 0 0 0 0 0 0 0 0 0 0 0 0 0 0 0 0 0 0 0 0 0
0 0 0 0 0 0 0 0 0 0 0 0 0 0 0 0 0 0 0 0 0 0 0 0 0 0 0 0 0 0 0 0 0 0 0 0 0 0 0 0 0 0 0
0 0 0 0 0 0 0 0 0 0 0 0 0 0 0 0 0 0 0 0 0 0 0 0 0 0 0 0 0 0 0 0 0 0 0 0 0 0 0 0 0 0 0
0 0 0 0 0 0 0 0 0 0 0 0 0 0 0 0 0 0 0 0 0 0 0 0 0 0 0 0 0 0 0 0 0 0 0 0 0 0 0 0 0 0 0
0 0 0 0 0 0 0 0 0 0 0 0 0 0 0 0 0 0 0 0 0 0 0 0 0 0 0 0 0 0 0 0 0 0 0 0 0 0 0 0 0 0 0
1 0 0 0 0 1 0 0 0 0 0 0 0 0 0 0 0 0 0 0 0 0 0 0 0 0 0 0 0 0 0 0 0 0 0 0 0 0 0 0 0 0 0
1 1 1 1 1 1 0 0 1 1 1 0 0 0 0 0 0 0 0 0 0 0 0 0 0 0 0 0 0 0 0 0 0 0 0 0 0 0 0 0 0 0 0
1 1 1 1 1 1 1 1 1 1 1 1 0 0 0 0 0 0 0 0 0 0 0 0 0 0 0 0 0 0 0 0 0 0 0 0 0 0 0 0 0 0 0
1 1 1 1 1 1 1 1 1 1 1 1 1 0 0 0 0 0 0 0 0 0 0 0 0 0 0 0 0 0 0 0 0 0 0 0 0 0 0 0 0 0 0
1 1 1 1 1 1 1 1 1 1 1 1 1 0 0 0 0 0 0 0 0 0 0 0 0 0 0 0 0 0 0 0 0 0 0 0 0 0 0 0 0 0 0
0 1 1 1 1 1 1 1 1 1 1 1 1 0 0 0 0 0 0 0 0 0 0 0 0 0 0 0 0 0 0 0 0 0 0 0 0 0 0 0 0 0 0
1 0 1 1 0 0 0 1 1 1 1 1 1 1 1 1 0 0 0 0 0 0 0 0 0 0 0 0 0 0 0 0 0 0 0 0 0 0 0 0 0 0 0
1 1 0 0 0 0 0 0 0 1 1 1 1 1 1 1 1 0 0 0 0 0 0 0 0 0 0 0 0 0 0 0 0 0 0 0 0 0 0 0 0 0 0
1 1 1 1 1 1 0 0 0 0 0 0 1 1 1 1 1 0 0 0 0 0 0 0 0 0 0 0 0 0 0 0 0 0 0 0 0 0 0 0 0 0 0
0 0 1 1 1 1 1 1 0 0 0 0 0 1 1 1 1 0 0 0 0 0 0 0 0 0 0 0 0 0 0 0 0 0 0 0 0 0 0 0 0 0 0
1 1 1 1 1 1 1 1 1 1 0 0 0 0 1 1 1 0 0 0 0 0 0 0 0 0 0 0 0 0 0 0 0 0 0 0 0 0 0 0 0 0 0
1 1 1 1 1 1 1 1 1 1 1 1 0 0 0 1 1 0 0 0 0 0 0 0 0 0 0 0 0 0 0 0 0 0 0 0 0 0 0 0 0 0 0
0 1 1 1 1 1 1 1 1 1 1 1 1 0 0 0 0 0 0 0 0 0 0 0 0 0 0 0 0 0 0 0 0 0 0 0 0 0 0 0 0 0 0
0 0 1 1 1 1 1 1 1 1 1 1 1 1 1 1 1 1 0 0 0 0 0 0 0 0 0 0 0 0 0 0 0 0 0 0 0 0 0 0 0 0 0
0 0 0 1 1 1 1 1 0 0 0 0 1 1 1 0 0 0 0 0 0 0 0 0 0 0 0 0 0 0 0 0 0 0 0 0 0 0 0 0 0 0 0
0 0 0 0 1 1 0 0 0 0 0 0 0 1 0 0 0 0 0 0 0 0 0 0 0 0 0 0 0 0 0 0 0 0 0 0 0 0 0 0 0 0 0
0 0 0 0 0 0 0 0 0 0 0 0 0 0 0 0 0 0 0 0 0 0 0 0 0 0 0 0 0 0 0 0 0 0 0 0 0 0 0 0 0 0 0
0 0 0 0 0 0 0 0 0 0 0 0 0 0 0 0 0 0 0 0 0 0 0 0 0 0 0 0 0 0 0 0 0 0 0 0 0 0 0 0 0 0 0
0 0 0 0 0 0 0 0 0 0 0 0 0 0 0 0 0 0 0 0 0 0 0 0 0 0 0 0 0 0 0 0 0 0 0 0 0 0 0 0 0 0 0
0 0 0 0 0 0 0 0 0 0 0 0 0 0 0 0 0 0 0 0 0 0 0 0 0 0 0 0 0 0 0 0 0 0 0 0 0 0 0 0 0 0 0
Wind_Speed
4 4 3 3 4 3 4 3 3 3 3 3 3 3 3 3 3 2 1 3 4 5 5 6 6 7 7 7 7 7 6 6 5 4 4 4 5 5 5 6 7 7 7
4 4 4 3 3 3 3 3 3 3 3 2 3 3 3 3 3 3 2 2 4 4 5 6 7 7 7 8 7 7 6 6 4 4 4 4 4 5 5 6 7 7 7
5 4 4 4 4 4 4 3 3 2 2 3 3 3 3 3 3 3 3 2 2 3 5 6 6 6 7 7 7 6 6 6 5 4 4 4 4 4 5 5 6 6 7
6 4 4 4 4 4 3 3 3 2 3 2 2 2 2 2 4 4 3 3 2 2 2 4 5 5 6 6 6 6 6 5 5 5 5 4 4 4 4 5 6 6 6
6 5 4 4 4 3 3 3 3 3 3 3 3 2 2 2 3 3 3 2 2 2 2 2 3 3 4 6 6 6 5 5 5 5 5 5 4 4 5 5 5 6 7
7 6 4 5 4 3 3 3 3 3 3 2 2 2 3 3 3 3 3 2 1 2 1 1 1 1 2 4 5 5 5 5 5 4 4 4 4 4 5 5 6 7 7
7 6 5 5 5 5 5 5 4 4 3 2 1 2 3 5 4 3 2 2 1 1 1 1 0 0 1 2 3 4 5 5 4 4 4 5 5 5 5 6 6 7 8
7 6 7 5 5 5 5 6 5 3 3 3 3 2 2 2 2 2 2 2 1 0 1 1 1 1 0 0 1 2 4 4 4 5 5 5 5 5 6 6 7 7 8
7 6 7 6 6 6 5 6 6 6 5 4 4 3 3 3 1 1 1 2 1 1 1 1 1 0 1 1 0 2 2 3 4 5 5 5 5 6 6 7 7 8 8
7 7 7 7 7 6 6 6 6 5 5 5 4 4 4 2 2 1 1 1 1 1 1 1 1 1 1 1 0 1 2 2 3 4 5 5 6 6 7 7 7 8 8
6 6 7 7 7 6 6 6 6 6 6 5 4 3 4 4 3 3 3 2 1 1 1 1 1 1 1 1 0 1 1 2 2 3 4 5 6 7 7 8 8 8 9
3 5 5 5 6 5 6 6 6 6 6 6 5 4 3 3 3 4 4 3 2 2 2 1 1 1 0 0 0 1 2 2 2 3 3 4 5 6 7 8 8 8 9
2 3 4 4 4 4 4 4 4 5 5 5 5 4 4 4 2 3 3 3 3 2 2 1 1 1 0 0 0 1 1 2 2 2 3 3 4 5 7 8 8 9 9
1 1 2 3 3 3 3 4 4 4 3 4 4 4 3 3 2 2 3 2 3 3 3 3 1 1 1 1 0 0 1 2 2 2 3 3 4 5 6 7 8 9 9
1 1 1 1 2 2 3 3 3 3 3 4 4 4 3 2 2 2 2 2 3 4 4 2 1 1 0 0 0 0 0 2 2 2 3 4 5 5 6 7 8 8 9
2 1 1 1 2 2 2 2 2 2 3 3 3 3 3 2 2 1 2 2 2 3 3 1 1 1 0 0 0 0 0 2 2 2 3 4 4 5 6 6 7 8 9
2 2 1 1 1 2 2 2 2 2 2 3 2 3 3 2 2 1 1 2 2 2 3 1 1 1 1 1 1 1 1 1 1 3 4 4 5 5 6 7 7 8 8
2 2 2 1 1 1 1 2 2 2 2 2 2 1 2 1 2 1 1 1 1 1 2 2 1 1 1 1 1 1 1 2 2 3 4 5 5 6 6 6 7 7 8
3 3 2 2 1 1 1 1 1 1 1 1 2 2 1 1 2 1 1 1 1 0 1 1 1 1 1 1 1 2 2 2 2 3 4 5 5 6 7 7 7 7 8
3 3 3 2 1 1 0 0 1 1 1 0 0 1 0 1 2 2 1 1 1 1 1 2 1 0 1 0 1 1 2 3 3 3 4 5 5 6 7 8 8 8 8
3 3 2 2 1 1 0 0 1 1 1 1 1 1 1 1 1 1 0 1 1 1 1 1 1 1 0 0 1 1 2 3 3 2 3 3 3 3 4 6 6 7 9
3 3 2 2 1 1 1 1 1 0 1 1 1 1 1 2 3 4 4 3 2 1 1 1 1 1 1 1 1 1 1 2 3 2 3 4 2 3 4 4 7 8 8
2 2 2 2 2 1 1 1 2 1 1 1 1 1 1 1 2 3 4 5 4 3 2 1 1 1 1 2 1 2 2 2 3 2 3 4 3 4 4 5 8 8 9
2 2 2 2 2 2 1 1 2 1 1 1 1 1 1 1 2 3 3 3 2 2 3 2 1 1 1 1 1 2 2 2 2 2 2 3 3 4 5 4 7 8 9
2 2 2 2 2 2 1 0 2 1 1 1 1 1 1 1 3 4 3 3 3 3 5 6 5 4 4 4 2 1 1 1 2 2 2 2 3 5 4 3 4 8 9
2 2 2 2 2 2 1 1 1 1 2 2 2 1 2 2 3 4 3 3 2 2 2 3 4 5 4 4 5 2 0 0 1 2 2 2 3 4 5 3 3 4 5
Wind_Direction
184 188 187 181 184 187 192 204 214 216 218 232 240 240 251 265 267 266 270 227 223 237 258 270 277 281 285 287 288 290 290 292 294 296 301 306 311 313 310 310 310 309 309
186 187 188 187 195 196 197 199 207 210 216 223 239 243 245 252 255 255 252 245 231 233 249 262 271 278 284 286 288 290 295 298 304 309 311 307 307 311 314 315 315 314 316
192 188 190 192 199 200 200 202 215 214 221 223 232 244 249 247 248 250 247 237 219 224 236 251 264 276 283 286 288 290 296 302 307 315 322 317 309 311 316 318 317 316 316
197 193 195 199 199 198 195 195 204 211 224 224 233 244 243 241 242 242 240 231 221 209 220 235 254 269 279 284 287 290 297 302 306 316 325 322 314 311 316 317 317 320 319
201 197 200 201 197 197 196 196 200 205 216 224 233 240 248 249 247 243 235 230 227 216 206 201 228 260 276 284 286 287 293 299 305 317 322 320 316 312 316 318 320 321 320
201 200 200 202 196 194 197 197 205 209 207 213 236 251 251 247 245 242 231 221 224 220 216 206 215 253 274 290 296 300 301 303 308 318 323 325 323 321 323 324 325 326 325
202 200 201 200 198 200 200 198 200 209 214 197 219 264 258 242 232 229 211 201 213 216 202 207 205 208 277 281 297 303 304 304 305 308 313 315 315 314 319 322 324 325 327
208 204 202 202 201 205 204 203 201 202 207 193 188 217 275 284 245 221 194 184 202 196 183 183 207 188 163 138 2 311 306 309 311 313 317 317 317 317 319 319 320 321 324
213 207 204 205 205 205 210 207 203 200 207 207 198 195 209 231 287 268 201 179 175 181 196 217 200 165 145 134 323 330 323 315 316 314 315 317 318 318 317 317 320 322 325
215 212 208 208 210 210 211 211 210 210 204 210 211 219 222 207 199 260 270 200 172 200 219 226 192 199 158 157 58 358 320 316 327 325 324 321 319 318 318 319 321 322 324
213 214 213 213 214 214 213 211 211 212 211 213 210 208 224 235 227 219 242 236 231 226 225 222 195 206 179 170 203 316 314 319 335 333 334 332 330 328 325 323 321 321 322
214 213 211 214 218 218 217 216 214 214 216 218 219 212 201 202 210 216 231 238 237 232 234 219 204 205 213 153 17 356 337 343 350 344 341 340 337 331 325 321 320 320 321
233 220 210 211 213 220 221 214 211 218 219 220 221 222 221 224 214 212 225 235 235 231 221 219 211 198 223 225 263 333 324 335 346 346 343 339 333 330 324 320 319 319 319
246 238 207 207 210 214 217 213 209 214 213 216 220 220 226 231 228 222 217 217 246 239 220 222 214 201 227 232 303 317 348 354 341 333 333 332 327 325 321 318 318 318 319
352 338 244 206 206 210 218 214 212 214 209 213 219 221 223 228 222 225 221 207 220 243 240 216 224 247 270 80 18 20 334 335 320 317 324 325 325 325 324 322 322 324 326
10 352 312 244 211 207 212 212 215 219 212 218 214 216 224 231 231 224 222 228 230 237 243 216 239 266 255 17 39 63 7 355 342 325 324 320 318 322 325 326 328 327 325
11 350 326 306 249 223 218 212 214 206 212 222 218 212 219 218 223 235 231 228 238 233 248 262 275 299 308 325 341 8 1 347 338 340 330 325 326 329 329 327 325 327 328
358 347 340 327 307 269 236 218 222 216 208 209 214 210 222 207 213 226 222 225 229 228 222 259 281 301 312 306 341 348 351 342 322 333 331 331 331 332 331 328 328 332 333
359 350 344 328 309 291 272 225 196 201 214 205 192 188 217 211 219 219 203 217 216 134 140 189 264 329 334 354 353 348 353 349 336 338 332 333 332 332 330 331 331 332 334
2 355 348 340 327 310 287 227 156 157 166 179 125 131 149 213 226 211 197 194 171 148 140 151 186 268 324 316 40 339 326 337 327 332 329 327 330 334 333 336 335 335 334
353 347 338 336 331 313 239 141 130 158 157 108 60 70 71 69 66 81 136 162 165 187 172 164 197 245 255 329 287 296 297 315 317 340 326 319 326 323 325 327 329 329 333
345 350 342 338 341 346 44 97 123 152 158 166 140 80 78 84 80 79 75 78 101 163 195 197 227 232 261 282 297 295 312 317 298 329 328 306 310 306 310 308 314 321 327
342 348 340 340 335 337 41 75 88 92 148 175 145 120 82 80 101 96 78 70 65 80 110 168 197 252 264 273 270 275 282 292 282 299 317 296 304 299 305 307 310 318 329
327 325 330 333 320 313 5 79 82 81 91 97 111 135 144 135 114 115 93 72 57 46 56 66 97 27 357 330 263 268 281 314 313 327 345 289 303 301 307 302 305 317 325
322 322 323 325 312 303 297 153 106 112 103 93 85 81 111 126 121 117 115 112 94 71 65 72 70 59 48 42 41 55 33 355 316 313 358 317 306 315 305 293 310 322 327
299 310 310 309 295 289 270 218 130 130 122 109 93 88 92 114 119 119 129 139 135 111 89 65 57 48 44 47 42 37 46 249 321 306 349 341 317 335 315 300 317 320 324